sat.trackr.live / text

‹ back to catalog

STARLINK-34393

NORAD 64724 · 2025-144A

PAYLOAD ACTIVE UNKNOWN

§ Identity

Operator
Country
US
Launch date
2025-07-02
Launch site
AFETR
Launch vehicle
Mass (kg)
RCS (m²)

Purposes: comms

External: N2YO · Heavens-Above · Gunter

§ Orbital elements

Epoch: 2026-05-25T02:16:57.339840Z

Period
94.10 min
Inclination
53.1587°
Eccentricity
0.0001483
Mean motion
15.30207809 rev/d
Perigee alt
474.2 km
Apogee alt
476.2 km
Semi-major
6,853.3 km
B*
4.5170e-4
RAAN
185.8816°
Arg perigee
85.8528°
Mean anomaly
274.2642°
Rev number
5,142

§ Raw data

STARLINK-343931 64724U 25144A   26145.09510810  .00013046  00000+0  45170-3 0  99942 64724  53.1587 185.8816 0001483  85.8528 274.2642 15.30207809 51427

JSON: /api/v1/satellites/64724 · /tle

For live sub-satellite position, see the globe view (requires WebGL).

§ Visibility from observer

Set your observer location to see the next 7 days of passes ≥ 10°. The values pass through the URL so the page stays shareable.

No JS? Fill the form by hand. The geolocation button needs JavaScript.